Farmville, Virginia, United States (23901)
Lat: 37.30N, Lon: 78.39W
Wx Zone: VAZ060
Local Info
Past Weather Observations for Today

NOTE: This archive is for the closest National Weather Service station to Farmville. Information may differ from the station used for current weather conditions.

Click here for Long-term Archive

Time Weather Temperature Dewpoint Humidity Pressure Winds Precip Visibility
17:55
Partly Cloudy
79°F / 26°C 68°F / 20°C 70% 30.15 in
(1021 mb)
Calm - 10SM
17:35
Clear
81°F / 27°C 68°F / 20°C 66% 30.15 in
(1021 mb)
NE 3.5 mph
(NE 6 kph)
- 10SM
17:15
Clear
81°F / 27°C 66°F / 19°C 62% 30.15 in
(1021 mb)
NE 3.5 mph
(NE 6 kph)
- 10SM
16:55
Clear
81°F / 27°C 66°F / 19°C 62% 30.15 in
(1021 mb)
Calm - 10SM
16:35
Partly Cloudy
81°F / 27°C 68°F / 20°C 66% 30.15 in
(1021 mb)
NE 5.8 mph
(NE 9 kph)
- 10SM
16:15
Overcast
79°F / 26°C 68°F / 20°C 70% 30.15 in
(1021 mb)
NNE 4.6 mph
(NNE 7 kph)
- 10SM
15:55
Mostly Cloudy
81°F / 27°C 68°F / 20°C 66% 30.15 in
(1021 mb)
NE 5.8 mph
(NE 9 kph)
- 10SM
15:35
Overcast
79°F / 26°C 68°F / 20°C 70% 30.18 in
(1022 mb)
NE 5.8 mph
(NE 9 kph)
- 10SM
15:15
Overcast
77°F / 25°C 68°F / 20°C 74% 30.18 in
(1022 mb)
N 4.6 mph
(N 7 kph)
- 10SM
14:55
Overcast
79°F / 26°C 70°F / 21°C 74% 30.18 in
(1022 mb)
N 4.6 mph
(N 7 kph)
- 10SM
14:35
Overcast
79°F / 26°C 68°F / 20°C 70% 30.18 in
(1022 mb)
N 5.8 mph
(N 9 kph)
- 10SM
14:15
Overcast
79°F / 26°C 68°F / 20°C 70% 30.18 in
(1022 mb)
NNE 6.9 mph
(NNE 11 kph)
- 10SM
13:55
Overcast
77°F / 25°C 68°F / 20°C 74% 30.18 in
(1022 mb)
NE 4.6 mph
(NE 7 kph)
- 10SM
13:35
Overcast
79°F / 26°C 68°F / 20°C 70% 30.15 in
(1021 mb)
NNW 3.5 mph
(NNW 6 kph)
- 10SM
13:15
Overcast
77°F / 25°C 68°F / 20°C 74% 30.18 in
(1022 mb)
NE 8.1 mph
(NE 13 kph)
- 10SM
12:55
Overcast
77°F / 25°C 68°F / 20°C 74% 30.18 in
(1022 mb)
N 5.8 mph
(N 9 kph)
- 10SM
12:35
Overcast
75°F / 24°C 70°F / 21°C 83% 30.18 in
(1022 mb)
NE 4.6 mph
(NE 7 kph)
- 10SM
12:15
Overcast
75°F / 24°C 68°F / 20°C 78% 30.18 in
(1022 mb)
N 5.8 mph
(N 9 kph)
- 10SM
11:55
Overcast
75°F / 24°C 70°F / 21°C 83% 30.18 in
(1022 mb)
N 4.6 mph
(N 7 kph)
- 10SM
11:35
Overcast
75°F / 24°C 70°F / 21°C 83% 30.18 in
(1022 mb)
N 5.8 mph
(N 9 kph)
- 10SM
11:15
Overcast
75°F / 24°C 70°F / 21°C 83% 30.18 in
(1022 mb)
NE 5.8 mph
(NE 9 kph)
- 10SM
10:55
Overcast
73°F / 23°C 70°F / 21°C 89% 30.18 in
(1022 mb)
NNE 6.9 mph
(NNE 11 kph)
- 10SM
10:35
Overcast
73°F / 23°C 70°F / 21°C 89% 30.18 in
(1022 mb)
NE 8.1 mph
(NE 13 kph)
- 10SM
10:15
Overcast
73°F / 23°C 68°F / 20°C 83% 30.18 in
(1022 mb)
NE 8.1 mph
(NE 13 kph)
- 10SM
09:55
Overcast
73°F / 23°C 68°F / 20°C 83% 30.18 in
(1022 mb)
NNE 10.4 mph
(NNE 17 kph)
- 10SM
09:35
Overcast
73°F / 23°C 70°F / 21°C 89% 30.18 in
(1022 mb)
NNE 8.1 mph
(NNE 13 kph)
- 10SM
09:15
Overcast
75°F / 24°C 70°F / 21°C 83% 30.15 in
(1021 mb)
N 8.1 mph
(N 13 kph)
- 10SM
08:55
Overcast
75°F / 24°C 68°F / 20°C 78% 30.15 in
(1021 mb)
NE 10.4 mph
(NE 17 kph)
- 10SM
08:35
Overcast
75°F / 24°C 70°F / 21°C 83% 30.15 in
(1021 mb)
NE 10.4 mph
(NE 17 kph)
- 10SM
08:15
Overcast
75°F / 24°C 70°F / 21°C 83% 30.15 in
(1021 mb)
NE 11.5 mph
(NE 19 kph)
- 10SM
07:55
Overcast
73°F / 23°C 70°F / 21°C 89% 30.15 in
(1021 mb)
NE 12.7 mph
(NE 20 kph)
- 10SM
07:35
Overcast
73°F / 23°C 72°F / 22°C 94% 30.12 in
(1020 mb)
NE 9.2 mph
(NE 15 kph)
- 10SM
07:15
Overcast
73°F / 23°C 73°F / 23°C 100% 30.12 in
(1020 mb)
NE 6.9 mph
(NE 11 kph)
- 10SM
06:55
Overcast
Fog And Mist
72°F / 22°C 72°F / 22°C 100% 30.12 in
(1020 mb)
NE 9.2 mph
(NE 15 kph)
- 5SM
06:35
Overcast
Fog And Mist
72°F / 22°C 72°F / 22°C 100% 30.12 in
(1020 mb)
NE 6.9 mph
(NE 11 kph)
- 5SM
06:15
Overcast
Fog And Mist
72°F / 22°C 72°F / 22°C 100% 30.12 in
(1020 mb)
NNE 5.8 mph
(NNE 9 kph)
- 5SM
05:55
Overcast
Fog And Mist
72°F / 22°C 72°F / 22°C 100% 30.09 in
(1019 mb)
NE 8.1 mph
(NE 13 kph)
- 5SM
05:35
Overcast
Fog And Mist
72°F / 22°C 72°F / 22°C 100% 30.09 in
(1019 mb)
NNE 8.1 mph
(NNE 13 kph)
- 4SM
05:15
Overcast
Fog And Mist
72°F / 22°C 72°F / 22°C 100% 30.09 in
(1019 mb)
NNE 8.1 mph
(NNE 13 kph)
- 4SM
04:55
Overcast
Fog And Mist
72°F / 22°C 72°F / 22°C 100% 30.09 in
(1019 mb)
NNE 5.8 mph
(NNE 9 kph)
- 5SM
04:35
Overcast
Fog And Mist
72°F / 22°C 72°F / 22°C 100% 30.06 in
(1018 mb)
NE 6.9 mph
(NE 11 kph)
- 4SM
04:15
Overcast
72°F / 22°C 72°F / 22°C 100% 30.06 in
(1018 mb)
NE 5.8 mph
(NE 9 kph)
- 7SM
03:55
Mostly Cloudy
72°F / 22°C 72°F / 22°C 100% 30.06 in
(1018 mb)
NNE 3.5 mph
(NNE 6 kph)
- 7SM
03:35
Partly Cloudy
72°F / 22°C 72°F / 22°C 100% 30.06 in
(1018 mb)
NNE 4.6 mph
(NNE 7 kph)
- 7SM
03:15
Partly Cloudy
72°F / 22°C 72°F / 22°C 100% 30.04 in
(1017 mb)
N 5.8 mph
(N 9 kph)
- 10SM
02:55
Mostly Cloudy
72°F / 22°C 72°F / 22°C 100% 30.04 in
(1017 mb)
NNE 5.8 mph
(NNE 9 kph)
- 10SM
02:35
Overcast
72°F / 22°C 72°F / 22°C 100% 30.04 in
(1017 mb)
NNW 3.5 mph
(NNW 6 kph)
- 10SM
02:15
Mostly Cloudy
72°F / 22°C 72°F / 22°C 100% 30.04 in
(1017 mb)
N 3.5 mph
(N 6 kph)
- 10SM
01:55
Overcast
72°F / 22°C 72°F / 22°C 100% 30.04 in
(1017 mb)
N 4.6 mph
(N 7 kph)
- 10SM
01:35
Overcast
73°F / 23°C 73°F / 23°C 100% 30.04 in
(1017 mb)
N 4.6 mph
(N 7 kph)
- 10SM
01:15
Overcast
73°F / 23°C 73°F / 23°C 100% 30.04 in
(1017 mb)
N 3.5 mph
(N 6 kph)
- 10SM
00:55
Overcast
73°F / 23°C 73°F / 23°C 100% 30.06 in
(1018 mb)
NNE 5.8 mph
(NNE 9 kph)
- 10SM
00:35
Overcast
73°F / 23°C 73°F / 23°C 100% 30.04 in
(1017 mb)
NNE 4.6 mph
(NNE 7 kph)
- 10SM
00:15
Overcast
73°F / 23°C 73°F / 23°C 100% 30.04 in
(1017 mb)
Calm - 10SM
Time Weather Temperature Dewpoint Humidity Pressure Winds Precip Visibility


Weather for websites

WeatherForYou.com, LLC is not responsible for any damages or problems caused by this service. Current weather conditions are obtained from the closest station including government and personal stations which may have varying degrees of accuracy. Weather forecasts are derived from the NOAA NDFD. Like all things, this site belongs to Jesus Christ... He just trusts us to maintain it. If you have any questions or comments email webmaster@weatherforyou.com

Copyright © 2016, WeatherForYou.com LLC. All rights reserved.